Location: Buena Vista
(37.7110°N, 119.7938°W)
Time: 13:10:58
(UTC+00:00)

Envisat - Pass Details

Date: 14 August 2024
Orbit: 762 x 764 km, 98.3° (Epoch: 16 September)

Event Time Altitude Azimuth Distance (km) Brightness Sun altitude
Rises 12:39:57 0° 351° (N) 3,234 6.4 -7.2°
Reaches altitude 10° 12:43:32 10° 324° (NW) 2,302 5.4 -6.6°
Maximum altitude 12:45:44 13° 298° (WNW) 2,098 4.9 -6.2°
Drops below altitude 10° 12:47:57 10° 272° (W) 2,296 4.9 -5.8°
Enters shadow 12:49:31 - 258° (WSW) 2,633 5.1 -5.5°
